Dewpoint
48 48 48 47 47 48 49 49 50 48 46 35 29 27 21 17 10 18 29 33 29 19 15 24 22 17 20 25 22 21 19 17 18 19 22 18 20 19 19 21 10 12 19 18 17 15 8 13 7 8 10 11 14 22 25 22 22 21 19 18 20 26 10 6 10 11 6 9 12 20 18 20 18 18 16 14 10 12 13 9 5 7 3 8 4 7 11
49 48 48 47 47 47 48 49 49 47 46 33 27 19 14 18 14 17 28 33 31 23 5 10 13 16 20 21 22 23 22 23 20 16 20 20 19 17 19 18 17 16 20 16 10 15 1 8 11 10 15 16 24 24 24 22 23 21 19 12 18 10 13 5 2 2 4 7 8 11 15 19 17 13 13 13 8 6 3 4 1 8 10 12 10 6 7
50 49 48 47 46 46 47 48 48 49 44 34 27 18 20 18 19 27 25 26 24 17 18 18 15 15 13 14 15 15 16 23 23 19 22 22 20 14 15 19 20 18 21 21 20 20 6 6 9 11 12 17 21 20 19 17 24 26 27 28 25 5 10 4 -1 -4 -1 -0 0 3 4 1 12 17 17 13 11 10 10 6 6 6 9 10 3 8 9
50 49 48 47 46 46 47 47 48 47 45 37 26 23 21 14 3 17 20 22 22 23 23 21 18 11 7 13 10 14 12 17 20 21 23 21 22 22 21 20 22 22 19 16 17 18 20 9 7 12 9 11 19 22 21 20 23 27 27 25 17 7 11 10 9 7 6 9 9 9 14 8 6 3 14 13 11 7 6 8 7 10 8 11 12 12 11
50 50 49 48 48 46 46 46 47 47 44 38 24 21 16 19 17 9 15 23 21 18 21 21 21 12 17 10 9 6 14 14 11 23 18 23 23 24 21 20 13 11 10 9 16 21 21 18 14 12 10 11 12 22 23 22 26 28 27 22 9 4 8 12 13 11 13 10 10 11 14 11 11 9 13 11 13 11 13 13 11 13 7 9 13 12 13
50 50 49 48 47 47 45 46 47 46 44 39 24 15 20 16 10 18 19 14 8 20 15 21 19 21 22 14 17 15 12 9 8 13 22 24 23 15 12 13 18 16 13 10 5 8 11 13 6 9 9 8 12 11 21 24 25 25 19 17 13 8 7 6 8 9 12 14 13 13 13 13 13 13 14 14 12 12 13 14 16 11 10 9 8 11 12
50 50 50 49 49 49 50 46 46 46 45 39 24 17 15 19 16 18 20 14 13 17 15 23 19 19 21 21 14 10 9 8 11 12 14 12 14 15 6 9 16 19 21 13 9 12 5 9 4 7 6 6 9 8 10 24 23 20 17 15 4 9 9 5 7 12 14 14 14 14 14 14 13 14 14 14 13 13 16 16 15 14 14 13 13 13 12
50 50 50 50 50 50 50 46 48 45 44 32 21 21 18 12 13 9 19 20 16 17 17 19 19 15 17 10 10 14 14 12 15 20 12 8 8 18 13 15 17 22 22 15 11 10 8 8 7 7 8 12 8 5 10 13 19 16 16 12 14 8 9 12 8 7 13 12 12 10 13 12 12 11 12 13 14 14 15 15 14 14 15 16 15 15 16
51 51 50 50 50 50 49 49 48 44 42 20 23 20 19 16 19 22 18 14 13 18 15 14 16 15 17 14 7 21 16 15 18 20 21 11 11 19 18 17 21 22 21 18 18 21 15 14 17 15 12 12 16 8 10 17 13 15 13 11 10 7 9 -1 2 8 12 10 10 11 12 12 12 11 10 10 12 9 12 11 14 14 14 14 12 12 15
51 51 51 50 50 50 49 48 47 44 38 22 23 18 22 23 24 24 23 12 16 10 13 15 19 10 8 15 15 11 16 17 15 8 19 21 22 21 22 20 21 17 16 14 19 21 22 22 23 22 19 21 22 19 16 16 16 11 10 7 10 4 4 6 3 7 10 11 11 12 11 6 3 4 4 7 12 13 14 15 16 15 14 10 7 13 12
51 50 50 50 50 50 49 48 47 45 27 21 23 22 24 18 18 20 24 14 10 8 11 11 11 9 18 22 21 20 22 22 23 6 6 23 24 21 22 22 20 16 15 19 24 25 26 26 25 24 23 23 22 22 20 20 19 16 16 9 6 4 7 7 5 6 8 12 11 9 2 -6 -3 9 8 8 7 7 8 10 12 15 15 14 15 13 15
50 50 50 50 50 50 50 48 46 44 37 27 27 26 25 23 22 23 24 19 4 4 14 6 6 9 15 20 18 18 18 19 21 18 12 15 23 24 24 21 14 14 20 24 27 27 25 24 24 23 22 22 21 20 18 20 20 21 16 12 8 10 5 7 1 7 10 10 8 6 -6 -2 9 15 15 14 11 10 11 14 14 15 16 16 15 15 15
50 50 50 50 49 49 49 50 47 45 41 33 30 28 28 27 18 18 21 19 4 7 13 7 11 16 17 20 17 19 20 20 20 25 24 24 21 23 24 22 19 18 24 25 25 24 18 15 15 18 20 14 19 20 21 18 19 19 17 13 12 5 7 2 9 -0 3 3 -4 -5 1 4 11 8 22 20 16 14 15 14 14 18 17 17 17 17 17
50 50 50 50 49 49 49 50 49 46 43 39 35 31 28 27 17 12 17 15 7 5 5 9 12 7 15 16 15 18 15 16 15 21 16 24 23 23 26 28 25 27 28 26 22 14 14 13 2 11 10 9 10 6 13 19 19 18 18 18 16 13 2 7 10 4 2 -1 -1 8 8 5 3 3 12 20 17 18 16 9 12 14 17 19 18 17 16
50 50 49 49 49 49 49 49 49 48 44 41 37 35 35 31 25 14 16 21 12 7 9 9 6 7 14 16 19 15 12 10 18 11 19 21 25 25 27 28 29 28 28 21 14 13 8 5 2 2 7 5 -3 -1 17 13 18 19 19 18 14 16 12 13 5 6 1 3 8 8 6 1 5 2 14 21 21 22 20 15 18 19 17 19 15 15 15
50 49 49 49 49 49 48 49 49 49 48 42 38 38 37 34 28 23 17 19 16 11 12 16 13 14 17 18 19 13 10 9 10 13 11 15 17 23 27 26 26 26 25 12 11 7 3 3 1 -2 -2 -2 3 2 1 8 10 17 18 16 16 14 13 8 7 6 4 4 2 -2 -2 5 7 11 13 17 25 24 21 13 15 19 17 16 17 16 17
49 49 49 49 49 49 49 49 49 49 47 45 36 37 39 38 34 27 12 18 20 2 4 20 22 20 12 6 15 15 16 12 17 4 6 10 13 21 25 25 24 26 25 13 12 8 7 2 -4 -2 3 6 3 1 7 7 7 5 15 16 15 12 3 7 11 8 6 -2 2 6 0 7 10 11 12 17 26 21 17 10 10 15 16 17 17 17 18
49 49 49 49 49 49 48 48 49 49 48 45 40 39 36 39 36 28 20 21 15 10 14 23 20 15 15 15 14 17 19 17 17 13 12 13 17 19 20 22 18 22 25 12 11 6 0 4 3 2 3 10 8 9 3 4 3 3 4 15 10 10 10 7 14 1 6 12 7 0 9 13 17 16 16 23 24 16 8 9 14 16 18 19 19 19 19
49 49 49 49 49 48 48 48 48 48 49 46 35 36 39 37 37 27 25 25 23 16 19 25 23 18 18 24 21 21 20 19 18 10 10 16 16 22 24 23 21 12 19 10 10 6 5 4 10 -1 2 8 9 5 9 4 4 11 10 8 5 3 1 3 -0 4 8 8 6 11 9 14 14 14 22 25 12 11 12 14 17 19 20 20 21 20 20
49 49 49 49 48 48 48 48 48 48 49 48 41 38 36 35 36 31 27 17 13 18 16 22 25 25 26 22 20 20 19 22 20 13 11 14 22 18 16 13 19 19 13 12 6 8 4 4 4 9 3 -0 7 11 5 9 9 7 7 5 4 10 4 5 3 6 2 -0 3 5 2 8 15 19 17 22 14 14 15 17 19 23 21 20 20 20 21
49 48 48 48 48 48 48 48 48 48 49 49 42 36 38 36 38 38 29 22 25 23 21 24 27 27 26 26 26 24 24 24 22 17 21 16 21 14 9 11 16 13 9 8 7 7 3 6 2 6 12 7 9 10 9 4 11 13 10 10 6 10 2 1 1 10 5 3 2 3 11 11 20 14 13 15 16 18 19 20 18 19 21 20 20 21 22
48 48 48 48 48 48 47 48 48 48 48 48 46 36 37 38 36 39 37 27 23 20 22 26 28 28 30 32 32 31 30 28 26 24 22 18 22 18 18 18 21 15 14 12 10 9 11 7 4 5 8 10 9 13 8 8 11 13 10 6 12 13 10 13 10 9 10 9 12 13 14 13 17 17 16 17 19 21 20 20 19 19 20 21 21 22 23
48 48 48 48 48 48 47 47 48 48 47 47 43 40 37 38 39 39 31 24 26 28 27 27 28 30 30 32 33 35 34 34 34 30 26 25 21 21 22 21 19 22 22 18 15 13 14 11 12 10 6 7 13 7 6 13 7 5 10 10 15 16 13 17 11 15 16 15 14 15 14 15 15 20 21 20 20 21 20 19 19 21 22 22 22 22 23
47 48 47 47 48 48 47 47 47 47 47 46 44 38 38 38 40 37 34 30 24 20 23 26 24 26 28 30 31 33 34 35 34 33 31 29 20 19 22 23 24 23 23 23 22 18 15 13 15 8 10 17 6 8 7 12 10 13 6 16 9 14 17 15 13 18 13 13 13 13 13 13 16 18 21 21 21 21 20 20 21 22 23 23 24 24 24
47 47 47 47 47 47 47 47 47 46 46 46 42 41 40 41 42 36 31 26 27 21 20 21 21 29 28 30 33 34 34 34 36 33 33 31 25 21 19 24 25 24 22 25 23 21 14 15 14 11 10 19 16 16 17 9 17 14 11 18 11 18 17 14 15 15 13 14 15 16 15 16 19 22 22 19 20 21 21 22 23 23 24 24 24 25 25
47 47 47 47 47 46 46 46 46 46 46 45 44 41 40 39 41 35 34 29 23 15 22 21 27 28 30 31 31 33 34 34 32 33 33 31 30 28 27 30 29 26 25 25 21 19 14 15 12 8 11 21 18 12 10 15 17 15 14 18 18 18 16 17 17 14 16 16 17 18 20 21 22 21 19 20 21 21 21 22 24 24 24 24 24 24 25
46 46 46 46 46 46 46 46 46 46 45 45 44 43 43 42 42 40 38 34 25 14 21 17 22 26 31 32 32 35 37 35 33 32 31 31 33 32 31 30 28 23 24 20 17 12 9 9 11 19 14 20 9 11 12 19 17 16 14 19 16 17 16 18 15 17 17 17 17 20 18 19 20 20 20 20 22 21 22 23 24 24 24 24 24 24 25
46 46 46 46 46 46 46 46 46 46 45 45 44 44 44 42 42 43 41 38 28 9 15 18 23 29 31 31 34 34 34 34 32 31 30 30 30 30 31 29 27 24 19 18 19 16 14 14 20 16 7 8 13 21 8 11 9 13 17 17 18 17 17 19 15 14 16 17 18 22 22 22 23 23 24 23 23 22 22 23 23 24 24 24 24 24 24
46 46 46 46 46 46 46 46 46 46 45 42 36 39 41 42 44 44 44 41 31 26 19 22 27 23 22 27 30 29 31 32 31 30 31 30 29 29 30 28 26 22 14 11 10 7 8 17 15 14 15 20 16 17 9 13 8 15 18 19 19 18 19 19 18 18 17 18 19 22 23 22 23 24 24 24 24 23 23 24 24 24 24 25 25 25 25
45 45 45 45 45 46 46 46 46 45 44 36 31 29 28 32 40 43 44 42 37 28 23 19 21 25 27 29 31 30 30 32 30 28 28 29 29 28 28 28 25 26 20 19 14 19 18 13 14 19 21 23 17 12 11 10 9 17 19 20 20 20 20 21 20 18 17 18 22 24 24 24 25 25 24 24 24 24 25 24 24 25 25 25 25 25 25
46 45 45 45 45 46 46 46 45 44 43 39 32 27 20 18 32 44 44 43 37 30 21 18 21 22 21 30 31 30 30 31 29 27 27 28 29 28 25 25 24 26 22 19 17 18 17 15 14 18 21 23 19 13 14 9 15 15 20 20 21 21 20 20 21 22 23 25 25 25 25 24 25 24 24 24 25 25 25 24 25 26 26 26 25 25 26
47 46 45 45 45 46 46 46 45 44 40 38 34 29 29 31 38 44 44 44 40 31 21 19 17 18 17 23 26 31 31 30 27 27 27 28 28 25 25 27 23 24 29 15 18 17 18 22 15 15 16 26 22 13 6 9 16 20 20 21 22 23 23 23 23 24 25 25 25 25 24 24 24 23 23 25 25 26 25 25 25 25 26 26 26 26 26
46 47 46 45 45 46 46 46 46 44 42 43 44 45 44 44 44 44 45 43 33 21 14 17 16 16 18 18 23 26 30 29 25 26 27 27 25 26 23 25 26 27 33 27 19 17 20 20 17 16 24 23 18 14 10 17 20 21 21 22 23 24 24 25 25 26 26 26 24 23 23 23 24 25 25 26 26 25 25 25 25 25 24 24 23 23 23
46 46 45 45 46 46 45 46 46 44 41 38 35 38 41 44 44 45 44 33 27 22 18 18 18 17 18 18 17 22 29 26 23 21 23 28 26 27 23 24 23 22 26 25 24 24 21 23 18 18 20 19 17 15 17 22 23 23 23 24 24 25 25 25 26 26 26 25 24 24 24 25 25 26 26 25 25 24 24 24 23 23 23 23 23 23 23
45 45 44 45 45 45 43 41 36 34 30 31 33 38 42 44 44 45 42 35 27 22 21 21 14 10 17 18 15 21 26 26 22 22 22 24 26 25 26 20 19 19 23 26 24 23 12 19 23 17 21 12 16 18 21 23 23 23 23 24 24 25 25 25 25 26 26 26 26 26 26 26 25 24 25 25 24 24 23 22 23 23 23 22 23 23 24
45 43 43 44 44 43 39 38 37 37 32 29 35 41 43 44 44 40 38 39 32 26 24 25 17 17 14 16 16 20 25 22 21 18 20 22 23 23 23 18 18 23 25 21 21 19 20 25 18 17 9 13 18 21 21 22 22 22 22 23 25 26 25 25 25 25 25 26 25 25 25 25 25 24 24 24 23 23 23 23 22 23 23 23 24 24 25
43 41 42 40 36 30 26 29 36 38 36 40 42 43 43 43 40 35 34 30 31 32 30 24 24 22 22 21 22 22 25 22 22 16 9 18 21 17 18 20 24 27 18 16 14 17 26 25 19 15 14 16 19 20 23 24 23 23 25 25 26 25 25 25 25 25 25 24 24 24 24 24 24 24 24 23 23 23 23 22 22 23 24 24 25 26 26
41 38 32 30 24 17 15 21 32 40 42 42 41 34 30 31 28 26 28 29 29 32 28 25 26 26 25 25 21 29 22 18 19 18 15 8 19 15 13 22 28 24 17 12 18 26 21 21 19 16 20 23 24 23 23 26 26 25 24 24 24 24 25 25 25 24 23 22 22 22 23 24 23 23 23 23 23 23 23 23 24 25 26 26 27 27 28
38 36 31 25 21 18 21 29 34 41 41 38 31 28 26 18 16 18 22 18 23 26 23 26 27 28 27 22 26 27 26 21 23 10 16 17 19 19 14 14 19 15 10 8 15 21 13 8 7 8 19 22 20 20 23 24 23 24 23 23 24 25 25 25 25 24 24 23 23 24 24 23 23 23 24 24 24 24 24 24 25 26 27 27 28 28 28
35 32 29 24 22 25 32 35 41 38 35 29 21 19 19 18 17 13 15 13 17 16 18 19 24 28 30 28 23 24 25 23 20 22 14 21 25 14 13 12 11 15 11 8 17 11 10 8 6 9 16 18 19 22 24 24 24 24 25 25 25 25 25 25 25 25 25 25 25 24 25 25 25 25 24 24 24 23 24 24 25 26 27 27 28 28 27
33 32 31 30 32 35 39 42 36 22 22 21 18 18 13 11 21 23 17 7 11 19 19 24 15 15 19 23 24 23 27 23 19 14 15 19 19 19 15 16 15 13 13 11 16 11 10 13 9 8 18 20 21 22 24 24 24 23 24 24 24 25 24 24 24 24 24 23 23 23 25 27 26 26 25 25 25 25 25 25 26 27 27 27 27 26 27
36 34 31 35 39 38 33 29 23 24 20 18 13 17 21 19 16 12 15 11 14 13 18 18 17 19 21 22 23 19 23 18 17 16 16 17 23 16 14 11 10 12 10 14 9 6 6 11 6 11 15 20 22 23 23 23 24 23 24 23 23 23 23 23 23 23 23 23 23 23 24 26 26 26 26 26 26 26 26 26 26 26 26 26 27 27 27
42 42 41 31 26 25 20 14 18 17 15 15 8 3 8 6 12 5 7 10 8 19 21 18 18 24 23 20 22 19 22 25 22 19 17 14 21 17 15 13 5 10 15 9 11 9 6 8 3 14 20 21 22 23 23 23 23 22 21 21 20 20 20 20 21 21 22 24 24 24 25 25 25 26 26 26 25 24 24 25 25 26 27 27 27 27 28
33 28 24 19 13 13 16 8 19 15 14 16 5 3 10 5 10 10 10 16 15 14 17 20 22 24 21 19 19 19 18 21 24 13 18 13 13 6 7 9 10 16 11 13 12 10 14 9 15 17 19 22 23 23 22 22 21 20 18 18 18 19 19 21 21 21 22 23 24 24 25 24 24 25 26 25 24 24 24 25 26 27 27 27 27 28 28
24 19 16 10 10 14 7 4 11 8 6 7 18 11 7 5 9 7 18 17 20 22 19 17 20 20 22 23 17 16 23 19 21 17 14 14 16 11 7 14 9 9 12 13 3 6 5 13 17 17 21 23 23 22 22 20 18 17 17 18 18 19 20 20 20 21 21 22 22 24 24 24 25 25 25 25 26 26 25 25 27 27 27 27 27 27 28
29 23 16 7 4 8 4 0 11 4 9 13 17 11 7 7 9 11 13 13 18 17 22 21 17 17 18 17 16 14 6 12 14 16 13 14 12 13 14 7 9 11 3 5 7 13 13 15 17 18 21 22 21 20 19 17 17 18 19 19 19 20 20 20 21 22 21 22 23 24 24 24 24 24 24 25 26 26 26 27 27 27 27 27 27 27 28
25 23 19 14 13 14 13 6 9 9 12 14 14 14 16 21 17 21 20 16 21 22 19 16 18 19 17 17 15 15 9 12 15 15 10 14 13 13 14 13 10 8 8 5 8 12 13 17 18 21 21 20 19 19 18 18 19 19 19 20 20 20 20 20 21 21 21 23 23 23 24 24 24 24 25 25 25 26 26 26 26 27 27 27 27 28 28
16 20 14 3 2 11 5 8 15 18 18 20 18 15 17 16 19 21 18 16 23 23 18 15 20 17 14 16 13 16 8 10 14 16 15 9 9 13 11 12 14 10 8 7 12 13 16 20 20 20 20 21 19 18 19 19 20 20 20 20 20 20 20 20 21 21 22 23 24 24 24 24 25 25 25 25 25 25 26 26 26 26 27 27 28 28 28
24 16 10 9 12 11 14 17 19 18 17 11 13 15 16 19 19 22 20 12 20 19 20 20 18 14 16 14 15 12 13 13 11 15 12 11 15 14 13 8 3 7 8 10 16 16 16 17 20 21 21 21 21 21 20 19 20 20 21 21 21 20 21 21 22 22 23 24 25 25 25 25 25 25 25 25 24 24 24 26 26 26 26 26 26 26 27
19 16 23 18 11 12 15 18 18 17 10 7 7 10 9 13 12 19 16 18 10 13 15 17 18 15 13 8 6 5 9 9 15 10 5 13 10 5 10 12 12 11 9 10 13 15 16 18 19 19 20 21 22 21 20 20 22 23 23 23 23 23 22 22 23 23 24 24 24 24 24 25 24 24 24 23 23 25 25 26 26 26 26 26 26 26 26
27 20 18 16 12 11 9 5 5 4 9 9 7 10 14 15 15 19 15 16 16 15 12 15 10 12 11 11 5 4 9 14 11 12 10 8 4 6 14 12 11 12 13 14 16 17 17 18 18 19 21 22 21 20 21 22 23 23 24 24 24 24 24 24 23 23 24 24 24 24 24 24 24 24 24 25 25 25 25 25 26 26 25 26 25 25 26
20 11 11 19 19 17 16 18 15 17 19 18 18 17 21 16 17 17 19 19 17 18 15 11 14 17 16 15 14 13 9 10 12 8 9 11 4 6 11 14 15 15 15 16 17 18 19 20 21 22 22 21 22 22 23 22 22 23 22 23 24 24 24 24 24 24 24 24 24 23 24 24 24 25 25 24 24 24 23 23 25 25 25 25 25 26 26